2024/03/11 00:00:00,24.9,-2.1
2024/03/11 00:10:00,24.9,-2.2
2024/03/11 00:20:00,24.9,-2.3
2024/03/11 00:30:00,24.9,-2.3
2024/03/11 00:40:00,24.9,-2.3
2024/03/11 00:50:00,24.9,-1.9
2024/03/11 01:00:00,24.9,-1.8
2024/03/11 01:10:00,24.9,-2.0
2024/03/11 01:20:00,24.9,-1.9
2024/03/11 01:30:00,24.9,-2.3
2024/03/11 01:40:00,24.9,-2.2
2024/03/11 01:50:00,24.8,-2.3
2024/03/11 02:00:00,24.8,-1.9
2024/03/11 02:10:00,24.9,-1.9
2024/03/11 02:20:00,24.9,-1.7
2024/03/11 02:30:00,24.9,-1.7
2024/03/11 02:40:00,24.8,-2.0
2024/03/11 02:50:00,24.8,-1.7
2024/03/11 03:00:00,24.8,-1.2
2024/03/11 03:10:00,24.9,-0.8
2024/03/11 03:20:00,24.8,-0.7
2024/03/11 03:30:00,24.9,-0.2
2024/03/11 03:40:00,24.8,-0.5
2024/03/11 03:50:00,24.7,-0.5
2024/03/11 04:00:00,24.8,-0.7
2024/03/11 04:10:00,24.8,-1.2
2024/03/11 04:20:00,24.8,-1.4
2024/03/11 04:30:00,24.8,-1.5
2024/03/11 04:40:00,24.8,-1.7
2024/03/11 04:50:00,24.7,-1.6
2024/03/11 05:00:00,24.7,-1.6
2024/03/11 05:10:00,24.7,-1.1
2024/03/11 05:20:00,24.7,-1.4
2024/03/11 05:30:00,24.7,-1.2
2024/03/11 05:40:00,24.7,-1.5
2024/03/11 05:50:00,24.7,-1.2
2024/03/11 06:00:00,24.7,-0.9
2024/03/11 06:10:00,24.7,-0.9
2024/03/11 06:20:00,24.7,-1.4
2024/03/11 06:30:00,24.7,-1.5
2024/03/11 06:40:00,24.7,-1.1
2024/03/11 06:50:00,24.7,-1.2
2024/03/11 07:00:00,24.7,-0.9
2024/03/11 07:10:00,24.7,-0.7
2024/03/11 07:20:00,24.7,-0.6
2024/03/11 07:30:00,24.7,-0.7
2024/03/11 07:40:00,24.7,-0.2
2024/03/11 07:50:00,24.7,-0.2
2024/03/11 08:00:00,24.7,-0.2
2024/03/11 08:10:00,24.7, 0.0
2024/03/11 08:20:00,24.8, 0.3
2024/03/11 08:30:00,24.8, 1.2
2024/03/11 08:40:00,24.9, 2.2
2024/03/11 08:50:00,24.9, 2.6
2024/03/11 09:00:00,25.0, 4.0
2024/03/11 09:10:00,25.1, 4.9
2024/03/11 09:20:00,25.2, 6.7
2024/03/11 09:30:00,25.5, 7.3
2024/03/11 09:40:00,26.1, 8.3
2024/03/11 09:50:00,26.3, 9.7
2024/03/11 10:00:00,25.8,10.1
2024/03/11 10:10:00,26.0,10.5
2024/03/11 10:20:00,26.3,10.9
2024/03/11 10:30:00,25.3,10.5
2024/03/11 10:40:00,25.9,11.8
2024/03/11 10:50:00,25.5,12.2
2024/03/11 11:00:00,25.2,12.2
2024/03/11 11:10:00,26.1,12.6
2024/03/11 11:20:00,25.9,12.9
2024/03/11 11:30:00,25.5,13.0
2024/03/11 11:40:00,24.7,12.9
2024/03/11 11:50:00,23.3,13.3
2024/03/11 12:00:00,23.0,13.9
2024/03/11 12:10:00,22.8,14.6
2024/03/11 12:20:00,22.8,14.6
2024/03/11 12:30:00,23.4,14.9
2024/03/11 12:40:00,23.7,14.6
2024/03/11 12:50:00,23.3,15.5
2024/03/11 13:00:00,23.3,15.2
2024/03/11 13:10:00,23.2,15.1
2024/03/11 13:20:00,23.7,16.0
2024/03/11 13:30:00,56.0,15.8
2024/03/11 13:40:00,---,16.6
2024/03/11 13:50:00,---,16.9
2024/03/11 14:00:00,20.5,15.4
2024/03/11 14:10:00,19.6,14.1
2024/03/11 14:20:00,18.9,13.9
2024/03/11 14:30:00,18.6,13.3
2024/03/11 14:40:00,18.4,13.9
2024/03/11 14:50:00,17.9,12.5
2024/03/11 15:00:00,17.6,11.8
2024/03/11 15:10:00,17.3,10.7
2024/03/11 15:20:00,17.1,10.1
2024/03/11 15:30:00,17.1, 9.7
2024/03/11 15:40:00,17.0, 8.7
2024/03/11 15:50:00,17.1, 9.4
2024/03/11 16:00:00,16.9, 8.3
2024/03/11 16:10:00,16.9, 7.9
2024/03/11 16:20:00,16.6, 7.3
2024/03/11 16:30:00,16.6, 6.6
2024/03/11 16:40:00,16.6, 6.4
2024/03/11 16:50:00,16.6, 6.2
2024/03/11 17:00:00,16.5, 5.7
2024/03/11 17:10:00,16.5, 5.2
2024/03/11 17:20:00,16.5, 5.2
2024/03/11 17:30:00,16.4, 4.4
2024/03/11 17:40:00,16.3, 3.8
2024/03/11 17:50:00,16.4, 3.7
2024/03/11 18:00:00,16.4, 3.7
2024/03/11 18:10:00,16.3, 3.6
2024/03/11 18:20:00,16.3, 3.7
2024/03/11 18:30:00,16.3, 3.3
2024/03/11 18:40:00,16.2, 3.2
2024/03/11 18:50:00,16.3, 3.6
2024/03/11 19:00:00,16.3, 3.4
2024/03/11 19:10:00,16.3, 3.3
2024/03/11 19:20:00,16.2, 3.3
2024/03/11 19:30:00,16.2, 3.7
2024/03/11 19:40:00,16.2, 3.4
2024/03/11 19:50:00,16.2, 3.4
2024/03/11 20:00:00,16.2, 3.2
2024/03/11 20:10:00,16.2, 3.0
2024/03/11 20:20:00,16.1, 3.4
2024/03/11 20:30:00,16.1, 3.1
2024/03/11 20:40:00,16.1, 3.3
2024/03/11 20:50:00,16.1, 3.2
2024/03/11 21:00:00,16.1, 3.8
2024/03/11 21:10:00,16.1, 3.4
2024/03/11 21:20:00,16.0, 3.4
2024/03/11 21:30:00,16.0, 3.5
2024/03/11 21:40:00,16.0, 3.5
2024/03/11 21:50:00,16.1, 3.7
2024/03/11 22:00:00,16.1, 3.7
2024/03/11 22:10:00,16.0, 3.7
2024/03/11 22:20:00,16.0, 4.0
2024/03/11 22:30:00,15.9, 4.6
2024/03/11 22:40:00,15.9, 4.6
2024/03/11 22:50:00,15.9, 3.8
2024/03/11 23:00:00,15.9, 3.6
2024/03/11 23:10:00,15.8, 3.3
2024/03/11 23:20:00,15.9, 3.4
2024/03/11 23:30:00,15.8, 3.4
2024/03/11 23:40:00,15.8, 3.2
2024/03/11 23:50:00,15.8, 3.5
